sat.trackr.live / text

‹ back to catalog

STARLINK-37490

NORAD 69525 · 2026-133T

PAYLOAD ACTIVE UNKNOWN

§ Identity

Operator
Country
US
Launch date
2026-06-12
Launch site
AFETR
Launch vehicle
Mass (kg)
RCS (m²)

Purposes: comms

External: N2YO · Heavens-Above · Gunter

§ Orbital elements

Epoch: 2026-09-19T12:00:26.625024Z

Period
93.85 min
Inclination
53.1568°
Eccentricity
0.0002210
Mean motion
15.34395273 rev/d
Perigee alt
461.2 km
Apogee alt
464.2 km
Semi-major
6,840.9 km
B*
6.8011e-4
RAAN
234.1549°
Arg perigee
75.7680°
Mean anomaly
284.3568°
Rev number
1,661

§ Raw data

STARLINK-374901 69525U 26133T   26262.50030816  .00022669  00000+0  68011-3 0  99962 69525  53.1568 234.1549 0002210  75.7680 284.3568 15.34395273 16615

JSON: /api/v1/satellites/69525 · /tle

For live sub-satellite position, see the globe view (requires WebGL).

§ Visibility from observer

Set your observer location to see the next 7 days of passes ≥ 10°. The values pass through the URL so the page stays shareable.

No JS? Fill the form by hand. The geolocation button needs JavaScript.